Regional Weather Roundup
Issued by NWS

Home | Current Version | Previous Version | Text Only | Print | Product List | Glossary Off
Versions: 1 2 3 4 5 6 7 8 9 10 11 12 13 14 15 16 17 18 19 20 21 22 23 24 25 26 27 28 29 30 31 32 33 34 35 36 37 38 39 40 41 42 43 44 45 46 47 48 49 50

914
ASUS43 KFSD 282102
RWRSD

WEATHER ROUNDUP FOR SOUTH DAKOTA
NATIONAL WEATHER SERVICE SIOUX FALLS SD
400 PM CDT SUN AUG 28 2016

NOTE: "FAIR" INDICATES FEW OR NO CLOUDS BELOW 12,000 FEET WITH NO
SIGNIFICANT WEATHER AND/OR OBSTRUCTIONS TO VISIBILITY.


SDZ001>005-009-010-012>017-282200-
NORTHWEST AND NORTH CENTRAL SOUTH DAKOTA

CITY           SKY/WX    TMP DP  RH WIND       PRES   REMARKS
BUFFALO          N/A     94  35  12 SW3       29.90S
FAITH            N/A     94  38  14 CALM      29.94F
MOBRIDGE       SUNNY     92  58  31 VRB6      29.89S
$$

SDZ012>016-024>037-041>051-057-063-072>074-282200-
SOUTHWEST AND SOUTH CENTRAL SOUTH DAKOTA

CITY           SKY/WX    TMP DP  RH WIND       PRES   REMARKS
RAPID CTY ARPT SUNNY     91  49  23 E8        29.98F
PIERRE         SUNNY     95  61  32 W13       29.88F HX  95
CUSTER         SUNNY     83  29  14 W10       30.14S
ELLSWORTH AFB  SUNNY     89  44  21 SE8       29.98F
PHILIP         SUNNY     94  50  22 CALM      29.92F
PINE RIDGE     SUNNY     93  44  18 SE6       29.99F
WINNER         FAIR      97  62  31 S15G22    29.95F HX  98
$$

SDZ004>011-016>023-039-040-282200-
NORTHEAST SOUTH DAKOTA

CITY           SKY/WX    TMP DP  RH WIND       PRES   REMARKS
ABERDEEN       SUNNY     91  70  49 S21G29    29.91S HX  96
WATERTOWN      SUNNY     87  72  60 SE21G28   29.99F
BROOKINGS      MOSUNNY   86  73  65 S22       30.02F
$$

SDZ017-020-022-023-036>040-048>070-282200-
SOUTHEAST SOUTH DAKOTA

CITY           SKY/WX    TMP DP  RH WIND       PRES   REMARKS
SIOUX FALLS    MOSUNNY   88  72  58 S18       30.03F
HURON          SUNNY     91  69  48 S17G29    29.94S HX  96
CHAMBERLAIN    SUNNY     97  63  32 S15G22    29.93F HX  98
MITCHELL       SUNNY     92  66  42 S17G30    29.96F
YANKTON        SUNNY     90  70  51 SE15G23   29.99F HX  95
$$

ABBREVIATIONS USED IN REMARKS
   TC - TEMPERATURE IN CELSIUS
  WCI - WIND CHILL INDEX
   HX - HEAT INDEX
  VSB - VISIBILITY





USA.gov is the U.S. government's official web portal to all federal, state and local government web resources and services.